Regional Weather Roundup
Issued by NWS Cleveland, OH

Home | Current Version | Previous Version | Graphics & Text | Print | Product List | Glossary On
Versions: 1 2 3 4 5 6 7 8 9 10 11 12 13 14 15 16 17 18 19 20 21 22 23 24 25 26 27 28 29 30 31 32 33 34 35 36 37 38 39 40 41 42 43 44 45 46 47 48 49 50
009
ASUS41 KCLE 241310
RWRCLE
OHIO REGIONAL WEATHER ROUNDUP
NATIONAL WEATHER SERVICE CLEVELAND, OH
800 AM EST FRI NOV 24 2017

NOTE: "FAIR" INDICATES FEW OR NO CLOUDS BELOW 12,000 FEET WITH NO
SIGNIFICANT WEATHER AND/OR OBSTRUCTIONS TO VISIBILITY.

OHZ001>008-015>018-024>027-034-035-043-044-241400-
   NORTHWEST OHIO

CITY           SKY/WX    TMP DP  RH WIND       PRES   REMARKS
DEFIANCE       CLEAR     32  23  69 S8        29.89F WCI  25
FINDLAY        CLEAR     32  24  72 S9        29.91S WCI  24
TOLEDO EXPRESS CLEAR     32  26  78 S7        29.89F WCI  26
TOLEDO EXEC    CLEAR     31  25  78 S8        29.91F WCI  23
LIMA           CLEAR     32  25  75 S9        29.93R WCI  24
$$

OHZ009>014-019>023-028>033-038-089-241400-
   NORTHEAST OHIO

CITY           SKY/WX    TMP DP  RH WIND       PRES   REMARKS
CLE-HOPKINS    CLEAR     35  24  64 S10       29.96S WCI  27
CLE-LAKEFRONT  CLEAR     33  23  66 S13       29.93S WCI  24
CUY CO. ARPT   CLEAR     34  23  64 S14       29.93F WCI  24
LORAIN-ELYRIA  CLEAR     32  21  64 S12       29.94S WCI  23
ASHTABULA      CLEAR     32  24  72 S12       29.94F WCI  23
AKRON-CANTON   CLEAR     30  22  72 S7        29.96F WCI  23
WOOSTER        CLEAR     28  23  81 S6        29.97R WCI  22
MANSFIELD      CLEAR     31  24  75 S9        29.93S WCI  23
YOUNGSTOWN     CLEAR     31  23  72 S9        29.96S WCI  23
$$

OHZ042-051>053-060>062-070>072-077>081-241400-
  SOUTHWEST OHIO

CITY           SKY/WX    TMP DP  RH WIND       PRES   REMARKS
CINC-COVINGTON CLOUDY    29  24  82 S9        29.97R WCI  20
CINC-LUNKEN    CLOUDY    26  25  96 CALM      30.01S
HAMILTON       CLOUDY    27  25  92 E3        29.98S
DAYTON         CLOUDY    31  25  78 S6        29.96R WCI  25
WRIGHT-PAT AFB CLOUDY    30  24  78 CALM      29.96R
DAYTON GENERAL CLOUDY    30  23  75 S7        29.95S WCI  23
WILMINGTON     CLEAR     31  25  78 S6        29.97R WCI  25
$$

OHZ036-037-039>041-045>050-054>059-063>069-073>076-082>088-241400-
  CENTRAL AND SOUTHEAST OHIO

CITY           SKY/WX    TMP DP  RH WIND       PRES   REMARKS
COLUMBUS       CLOUDY    29  24  82 CALM      29.98S
OSU AIRPORT    CLOUDY    30  25  81 S6        29.97S WCI  24
BOLTON FIELD   CLEAR     27  25  93 S3        29.98S
RICKENBACK AFB CLOUDY    28  23  84 S3        29.98S
NEWARK         CLOUDY    25  21  85 CALM      29.98S
MARION         CLEAR     30  23  75 S10       29.95R WCI  21
LANCASTER      CLOUDY    25  23  92 S3        29.98F
ZANESVILLE     CLOUDY    28  22  78 CALM      30.00R
NEW PHILLY     NOT AVBL
$$




USA.gov is the U.S. government's official web portal to all federal, state and local government web resources and services.